Location: Zagreb
(45.8000°N, 16.0000°E)
Time: 19:55:09
(UTC+01:00)

deb Explorer IX - Pass Details

Date: 08 October 2020
Orbit: 537 x 1106 km, 38.8° (Epoch: 30 October)

Event Time Altitude Azimuth Distance (km) Brightness Sun altitude
Rises 13:13:56 0° 208° (SSW) 3,803 ? 37.6°
Reaches altitude 10° 13:17:39 10° 191° (SSW) 2,771 ? 37.5°
Maximum altitude 13:21:55 18° 152° (SSE) 2,136 ? 37.3°
Drops below altitude 10° 13:25:53 10° 111° (ESE) 2,533 ? 37.2°
Sets 13:29:04 0° 93° (E) 3,357 ? 37.0°
